CZ-6A DEB

Satellite information

Favourite Embed

Satellite Type and Status

DEBRISIN ORBIT

Key statistics

Satellite CZ-6A DEB at a glance.

Uptime

441

Days in orbit

Revolutions

≈ 15.2

Per day

Orbit

LEO

Low Earth Orbit

Inclination

88.8

Latest

Satellite identification and parameters

Extended collection of information and parameters for CZ-6A DEB.

Object identification

Identified? True

Debris? True

Object name: CZ-6A DEB

International designator: 2024-140YU

Object number (NORAD): 61427

Object ID (CCSDS): 61427

Country: PEOPLES REPUBLIC OF CHINA (PRC)

Current information (Y/N): Y

RCS size: SMALL

Orbital parameters

Period: 94.6 minutes

Inclination: 88.7957 deg

SMA: 6877.344 km

Apoapsis: 535.339 km

Periapsis: 463.078 km

RAAN: 285.1416 deg

Eccentricy: 0.0052535

Argument of periapsis: 261.3284 deg

Mean anomaly: 98.2009 deg

Mean motion: 15.22199886 rev/day

Mean motion (dot): 0.00199926 rev/day2

B* drag term: 0.008189454 1/REarth

Two-line elements (TLE)

Creation date: Oct. 21, 2025, 3:26 a.m.

Reference frame: TEME

Reference center: EARTH

Epoch: Oct. 20, 2025, 7:50 p.m. UTC

TLE line 0: 0 CZ-6A DEB

TLE line 1: 1 61427U 24140YU 25293.82681982 .00199926 00000-0 81895-2 0 9995

TLE line 2: 2 61427 88.7957 285.1416 0052535 261.3284 98.2009 15.22199886 63300

Live tracking on map

Real-time ground track for satellite CZ-6A DEB.

In-orbit conjunctions

A list of the most updated potential collisions computed for object CZ-6A DEB.

Target Orbit TCA Probability of collision Miss distance Type
THORAD AGENA D DEB LEO 2025-01-30 18:09:37 0.0003307141 734.0 (m) DEBRIS
RUBIN 4/SL-8 SSO 2024-12-20 03:21:55 0.0003343094 300.0 (m) PAYLOAD
IRIDIUM 33 DEB LEO 2024-11-25 08:50:24 0.0001195443 358.0 (m) DEBRIS
FENGYUN 1C DEB SSO 2024-10-04 23:39:10 0.0001322743 975.0 (m) DEBRIS
FENGYUN 1C DEB SSO 2024-10-02 00:39:37 0.0005309629 486.0 (m) DEBRIS

Associated space launch

18 Low Earth Orbit communication satellites with Ku, Q and V band payloads for the G60 constellation operated by Shanghai Spacecom Satellite Technology (SSST) with funding backed by the Shanghai local government. Initial constellation will consist of 1296 satellites by 2027 with long term plans to expand it to 12000 satellites.

CZ-6A DEB was lifted into orbit during the mission ‘Long March 6A | G60 Polar Group 01’, on board a Long March 6A space rocket.

The launch took place on Aug. 6, 2024, 6:42 a.m. from Launch Complex 9A.

For more information about the launch, click the button.

Launch to space Long March 6A | G60 Polar Group 01
Long March 6A | G60 Polar Group 01

Agency: N/A

Status: Launch Successful

Launch date: Aug. 6, 2024, 6:42 a.m. UTC

Rocket: Long March 6A

Launch pad: Launch Complex 9A

Location: Taiyuan Satellite Launch Center, People's Republic of China

...

Latest news about this satellite

News about space launch
Brightness of first Chinese broadband constellation satellites alarms astronomers

The first satellites of a Chinese broadband constellation are significantly brighter than those of Western systems, posing a new challenge for astronomers.

News about space launch
Chinese rocket stage breaks up into cloud of more than 700 pieces of space debris

HELSINKI — A Chinese Long March 6A rocket’s upper stage has fragmented into a cloud of over 700 pieces of space debris, adding to concerns about long-term orbital safety. China […]

News about space launch
China's Thousand Sails Megaconstellation Kicks Off with Dangerous Debris Field

China's Thousand Sails Megaconstellation Kicks Off with Dangerous Debris Field


Newsletter sign-up

Weekly statistics, charts and insights to help you stay on top of the space industry.